Theta_e
322 323 323 324 323 323 321 320 321 323 325 328 332 333 330 327 328 327 326 323 315 314 321 319 316 317 316 316 316 314 311 310 311 310 308 308 308 307 307 306 306 306 305 303 303 304 304 304 307 311 312 312 312 311 312 313 315 316 316 315 314 313 314 315 315 316 317 316 314 314 314 314 313 314 316 316 315 315 316 316 316 317 317 317 317 317
320 323 324 324 321 319 320 319 319 322 322 322 324 324 326 327 326 324 321 320 315 315 323 321 316 316 314 314 313 313 314 314 313 312 311 309 308 307 307 306 306 306 305 303 302 302 303 304 305 309 310 310 309 308 310 312 314 314 314 314 314 313 311 312 313 314 315 315 314 315 314 313 311 311 313 313 312 313 313 313 313 314 314 315 315 315
321 323 322 319 318 318 319 317 316 319 318 319 322 320 324 326 323 323 321 317 314 315 324 324 318 317 316 314 313 313 314 313 312 312 312 311 310 308 307 307 306 307 308 306 302 300 301 303 305 307 307 307 308 308 309 311 313 312 311 312 313 313 311 309 309 310 311 312 312 313 312 312 312 309 309 310 310 311 311 311 311 311 312 313 313 313
324 327 322 317 319 320 319 319 317 318 318 320 322 320 324 325 322 325 324 317 315 316 321 321 318 317 315 315 315 314 313 312 312 312 311 311 311 310 309 308 307 307 307 306 303 300 300 302 305 306 306 306 308 307 308 309 310 309 309 309 311 311 309 307 307 308 310 310 309 310 309 309 311 308 306 307 307 307 308 308 308 309 310 311 312 311
324 325 318 316 320 320 320 322 320 320 322 324 323 320 323 324 323 325 324 321 322 322 319 319 322 323 321 320 318 318 319 316 313 313 313 311 310 310 310 309 308 307 306 306 304 301 299 301 304 305 306 306 307 307 307 308 309 309 308 308 309 308 306 306 307 308 309 308 307 306 304 304 305 302 301 302 301 302 304 305 305 306 307 308 309 308
322 319 318 320 319 318 321 323 324 325 324 326 326 322 321 323 323 323 322 322 326 330 323 319 327 335 334 329 326 325 326 324 317 316 316 314 311 310 310 309 308 308 307 305 304 302 300 300 303 305 306 306 307 307 306 308 310 310 308 307 308 306 305 306 307 307 308 308 308 308 305 302 299 296 296 298 299 299 301 301 302 303 303 304 305 305
320 317 322 328 322 320 322 323 326 324 321 326 328 324 320 320 321 322 322 322 328 332 322 317 325 333 330 327 331 332 331 330 325 321 319 316 314 312 310 309 309 308 307 306 304 302 300 300 303 305 305 306 307 307 306 307 308 309 308 307 308 306 305 306 308 307 307 308 309 310 311 308 303 298 295 296 298 298 299 298 298 299 300 300 300 299
320 318 320 325 326 324 322 324 325 320 323 329 326 323 321 319 321 324 323 324 327 327 323 321 323 325 325 323 329 330 326 327 324 321 321 317 316 315 312 309 309 308 307 306 304 302 300 300 303 305 305 307 307 307 306 306 306 307 307 306 308 307 305 306 308 307 307 309 309 310 310 307 305 305 300 296 295 294 294 294 294 295 295 295 294 293
319 323 321 321 324 324 325 330 327 319 324 328 321 320 322 322 325 327 326 326 324 323 329 329 321 322 328 329 329 325 322 326 325 322 322 319 318 318 315 312 308 307 306 305 304 303 300 300 302 305 306 307 307 306 306 305 305 306 305 304 305 305 304 304 306 307 307 308 310 309 307 303 301 302 301 297 293 291 291 291 291 291 291 291 291 291
318 320 319 320 322 323 327 331 324 319 322 320 317 321 323 324 327 329 330 329 326 324 328 328 323 324 328 329 329 324 324 327 324 322 321 319 320 319 318 315 309 307 306 305 304 302 300 300 302 305 306 306 307 306 306 305 304 305 304 303 303 302 302 303 305 306 305 305 308 308 307 305 300 297 295 294 291 290 290 290 290 290 290 290 290 291
318 314 314 320 321 321 325 322 316 319 320 317 322 329 329 330 330 331 330 327 327 328 326 326 325 325 326 330 330 325 327 331 325 324 325 325 327 326 322 317 310 308 306 305 304 301 300 300 301 304 305 305 306 305 305 305 304 304 303 302 302 301 301 303 304 305 304 304 306 306 307 307 303 297 293 291 290 289 289 290 289 290 290 290 290 290
318 316 317 320 319 320 325 321 316 317 316 320 333 334 330 332 330 329 330 327 328 330 328 324 322 323 325 330 330 325 327 329 325 325 328 330 334 333 327 318 310 308 306 304 304 302 300 300 300 302 303 304 305 304 304 304 303 303 303 302 301 301 301 302 303 304 303 304 305 304 305 307 305 300 294 291 290 289 289 289 289 289 289 289 290 289
320 323 322 319 316 319 326 325 320 317 316 323 332 329 327 330 329 329 330 328 328 327 321 318 320 322 323 324 324 324 325 325 322 320 322 325 327 326 327 321 311 307 306 304 303 302 301 300 299 300 302 303 303 303 302 302 302 301 301 302 301 301 300 301 302 303 303 303 303 303 304 305 304 301 297 292 290 289 289 290 289 289 289 289 289 289
323 324 322 318 317 319 323 323 322 321 320 322 325 327 328 329 331 336 333 326 326 324 317 315 319 324 325 324 323 320 320 323 321 319 318 319 318 318 321 320 313 308 306 304 302 302 301 300 299 300 301 302 302 302 301 301 301 300 300 300 300 300 299 300 301 302 301 301 302 302 303 303 302 300 296 292 291 290 289 290 290 290 290 290 289 289
322 322 322 319 321 321 319 320 325 325 321 320 323 325 327 331 335 338 334 329 329 329 321 316 321 330 332 330 325 320 320 322 321 320 318 316 314 314 315 316 314 309 305 303 302 301 301 299 299 300 300 301 301 301 301 300 300 299 298 299 299 299 299 300 301 300 299 300 300 300 301 301 300 298 294 292 291 290 290 290 290 290 290 290 289 289
319 324 326 320 319 320 318 320 325 324 320 320 322 323 325 328 327 326 327 326 326 328 326 321 324 330 329 325 322 323 325 323 320 319 319 317 314 314 316 314 313 310 304 302 302 301 301 299 299 300 300 301 301 300 300 300 299 299 298 298 298 299 300 300 300 299 299 299 298 298 299 299 298 295 292 291 290 290 290 290 291 290 290 290 289 289
321 325 323 316 317 318 318 321 322 322 322 320 320 323 323 321 322 324 324 320 319 323 327 325 326 328 326 323 322 322 323 322 321 321 322 320 316 316 318 314 311 309 304 302 301 301 300 299 299 300 300 300 300 300 300 299 299 299 299 298 298 299 299 299 299 299 298 298 297 297 297 296 294 292 291 290 290 290 290 290 291 290 290 289 289 288
323 326 321 316 320 316 313 320 322 319 320 322 323 323 319 318 324 328 327 326 326 327 328 324 326 329 327 328 326 321 321 322 321 321 320 320 319 320 319 314 311 308 304 302 301 300 299 298 298 299 299 300 300 300 300 299 300 300 300 299 298 298 298 298 298 298 297 296 295 295 295 293 291 290 290 290 290 290 290 290 290 290 289 289 288 288
321 323 322 317 319 315 312 319 323 317 315 321 326 323 322 326 329 325 326 331 331 330 330 326 323 325 324 326 325 322 326 331 326 322 321 320 319 320 319 316 312 307 304 302 301 301 299 298 298 298 299 299 300 299 299 299 299 299 299 300 299 299 299 298 297 296 295 295 295 294 293 291 290 290 290 290 290 290 290 290 289 289 289 288 288 288
321 320 324 317 314 316 315 318 324 320 315 316 319 318 320 325 326 325 325 327 329 329 331 329 326 326 325 324 325 323 325 330 329 329 328 324 322 320 318 317 314 308 305 302 301 301 299 297 297 298 298 299 299 299 299 298 298 298 298 299 299 298 298 298 296 294 293 293 293 293 292 290 289 289 289 290 290 290 290 290 289 289 288 288 288 288
322 319 323 318 313 317 320 320 321 320 318 318 320 319 320 320 322 325 323 323 328 330 331 331 328 327 328 324 324 325 325 326 329 330 330 330 331 326 317 314 314 310 304 302 301 300 298 296 296 297 298 298 298 298 298 298 298 297 297 298 298 297 297 296 295 293 293 292 292 292 290 289 289 289 289 289 290 290 290 289 289 288 288 288 288 287
321 322 325 323 318 320 323 320 317 319 319 319 320 320 320 320 321 323 323 322 323 325 330 332 327 326 332 327 322 325 330 328 324 324 329 334 331 323 316 314 314 310 306 302 301 300 298 295 296 296 297 297 297 297 297 296 297 297 296 297 297 297 296 295 294 292 292 291 291 291 290 289 289 288 288 289 289 289 289 289 288 288 288 288 287 287
323 327 327 325 322 321 320 316 314 318 319 317 319 321 320 319 321 325 326 324 323 323 324 326 325 326 327 325 322 323 326 323 318 320 329 331 324 318 316 316 314 310 306 302 301 300 297 295 295 295 295 296 296 296 296 296 296 296 296 296 296 296 295 294 293 292 292 291 290 290 289 288 288 288 288 288 289 289 289 288 288 288 288 288 287 287
322 325 324 324 325 324 322 318 314 315 316 316 319 321 320 319 321 325 327 325 326 326 324 323 326 324 320 322 324 320 319 320 319 320 324 323 321 321 318 316 315 310 306 303 301 299 295 294 294 294 294 295 295 295 295 295 295 295 295 295 295 295 294 294 293 292 292 291 290 290 289 288 288 288 288 288 288 288 288 288 288 287 287 287 287 287
320 324 324 326 327 327 325 323 319 315 315 319 322 321 320 320 320 322 323 322 325 328 326 325 327 323 320 322 323 319 319 322 322 320 320 320 323 324 319 317 316 311 306 303 301 299 297 295 294 293 293 294 294 294 294 294 294 294 294 294 294 294 294 294 293 292 292 291 290 289 289 288 288 288 288 288 288 288 288 287 287 287 287 287 287 287
320 323 323 323 325 325 324 325 325 320 317 320 324 321 319 320 320 320 322 322 324 325 324 324 325 322 320 320 320 319 321 324 324 323 322 321 322 322 319 318 316 312 308 305 301 300 298 296 294 293 293 294 294 294 294 294 294 293 293 294 293 294 294 293 293 292 292 291 290 289 289 288 288 288 287 287 287 288 287 287 287 287 287 287 287 286
324 324 321 321 323 322 322 324 324 322 319 320 322 320 318 318 318 319 322 323 324 325 324 322 322 322 321 320 321 323 326 327 327 326 326 323 321 322 320 317 314 311 307 304 301 299 298 296 295 293 293 293 294 294 294 294 293 293 293 293 293 293 293 293 292 292 292 291 290 290 289 288 288 288 287 287 287 287 287 287 286 286 286 286 286 286
328 325 321 322 323 321 322 324 322 322 322 321 321 320 318 318 318 319 321 322 324 327 326 323 322 323 322 320 322 325 328 329 328 328 329 327 324 326 324 317 314 312 307 303 301 300 298 297 296 294 293 293 293 293 294 294 293 293 293 293 292 292 292 292 292 291 291 290 290 290 289 289 288 287 287 287 287 287 287 286 286 286 286 286 286 286
327 325 322 323 323 322 321 323 323 324 323 322 321 320 319 318 318 319 320 320 322 325 324 323 325 325 321 320 321 323 324 324 322 321 322 321 322 324 323 319 319 317 310 307 304 300 298 298 296 294 293 292 293 293 293 293 293 293 293 292 292 292 292 292 291 291 290 290 290 290 289 288 287 287 287 286 286 286 286 286 286 286 286 286 286 286
323 326 326 324 322 323 321 322 324 324 322 322 321 320 320 319 318 318 319 319 320 322 322 322 324 324 320 319 320 322 324 322 319 318 318 318 319 320 321 321 322 320 314 311 307 301 298 298 297 294 293 292 292 292 292 292 293 293 292 292 292 291 291 291 291 290 290 290 290 289 288 288 287 287 286 286 286 286 286 286 286 285 285 285 285 285
318 323 327 324 323 324 321 321 324 323 321 322 321 320 320 319 318 318 318 318 319 320 320 321 322 322 320 320 319 320 323 323 321 320 319 317 317 318 319 319 319 318 316 312 307 302 299 298 297 294 293 292 292 292 292 292 292 292 292 291 291 291 290 290 290 290 289 289 289 288 288 287 287 286 286 286 286 286 286 286 285 285 285 285 285 285
317 320 323 323 324 324 322 323 324 321 320 320 321 321 320 319 318 317 317 318 318 319 320 320 321 320 319 321 320 319 321 323 321 320 319 318 317 317 317 317 317 317 315 312 308 304 301 299 298 296 293 293 292 292 292 292 292 292 292 291 291 290 290 290 290 289 289 289 288 288 287 287 287 286 286 286 286 286 286 285 285 284 284 284 285 285
318 320 322 323 324 323 322 324 322 320 321 322 322 321 319 318 318 317 317 317 317 318 320 320 320 319 318 319 319 319 320 322 320 318 317 318 318 317 316 315 316 315 314 312 310 306 302 299 296 295 293 293 293 293 292 292 292 292 292 291 290 289 289 289 289 289 289 288 288 288 287 287 286 286 286 286 286 286 286 285 285 284 284 285 285 285
317 319 320 320 323 324 321 320 320 321 324 325 324 323 321 318 318 317 317 317 316 316 317 318 319 318 318 319 319 319 319 319 318 317 316 316 317 318 317 315 313 313 312 311 309 307 304 299 295 294 294 294 293 293 292 292 292 292 292 291 290 289 289 289 289 289 288 288 288 287 287 286 286 286 286 286 286 286 285 285 285 284 284 284 284 285
315 318 319 318 321 322 320 319 322 324 324 324 325 323 321 319 318 318 318 317 316 316 316 317 318 317 318 318 317 318 318 317 317 316 316 317 317 317 317 315 312 310 310 309 309 309 304 297 294 294 294 294 294 293 292 292 292 292 291 290 290 289 289 288 288 288 288 288 287 287 286 286 286 286 286 286 286 285 285 285 284 284 284 284 284 285
316 317 318 318 319 320 320 321 324 324 322 323 323 317 316 319 320 319 320 318 316 316 316 316 316 315 316 316 316 317 317 316 316 315 316 320 317 313 313 314 312 312 311 309 307 306 301 296 295 295 294 294 294 292 292 292 291 291 290 290 289 289 288 288 288 287 287 287 287 287 286 286 286 286 286 285 285 284 284 284 284 284 284 284 284 285
318 318 317 318 318 319 321 322 323 323 322 323 323 317 316 322 322 320 322 321 318 316 316 315 316 315 316 316 316 315 314 315 316 314 315 318 316 313 311 311 310 310 308 304 301 300 299 297 297 296 295 294 293 292 292 291 291 291 290 289 289 288 288 288 287 288 287 287 287 287 287 287 286 286 286 285 284 284 284 284 284 284 284 284 284 284
318 318 317 318 319 318 321 322 322 324 323 322 324 321 318 323 323 319 322 323 319 318 317 315 316 316 315 316 316 313 312 315 316 314 316 319 315 311 309 307 302 300 299 298 297 297 297 297 297 296 295 294 293 292 292 291 290 290 289 289 289 288 288 288 288 288 287 287 287 287 287 287 286 286 285 285 285 285 285 285 284 284 283 284 284 284
316 316 315 318 319 318 320 322 323 324 323 322 323 319 315 319 320 318 321 322 321 323 322 316 317 318 316 316 316 314 314 316 317 316 316 313 307 304 305 305 300 295 295 297 298 297 297 296 296 295 294 293 292 291 291 291 290 290 289 289 288 288 288 288 288 288 288 288 288 287 287 287 286 286 286 286 286 286 286 285 284 284 283 283 283 284
314 316 315 317 320 319 319 321 321 322 321 321 320 313 310 315 317 319 322 322 321 321 319 316 318 317 316 316 315 315 316 318 318 314 307 303 301 299 299 302 300 296 294 295 297 297 297 296 295 294 293 293 292 291 291 291 290 289 289 289 288 288 288 288 288 288 288 288 288 287 287 287 287 287 287 287 287 286 286 285 284 283 283 283 283 283
314 316 315 317 320 319 320 321 321 321 323 323 318 311 309 312 316 320 323 320 318 316 311 313 318 317 315 316 315 316 316 313 309 305 299 300 303 299 294 293 294 293 293 294 295 296 295 295 295 294 293 293 292 291 291 291 290 289 289 289 288 288 289 289 289 288 288 288 288 288 288 288 288 288 288 288 287 286 285 285 284 284 283 283 283 282
315 316 316 317 319 319 320 321 320 321 322 318 312 307 308 314 321 322 317 311 313 314 309 309 315 315 313 314 314 314 311 304 300 299 299 300 303 300 294 292 292 292 293 293 294 295 294 294 294 293 292 292 292 292 291 291 290 289 289 289 289 289 289 289 289 289 289 289 289 288 289 288 288 288 288 287 286 285 285 284 284 284 283 283 282 282
316 317 317 317 318 319 320 320 321 322 316 311 309 306 308 317 323 318 311 306 307 312 311 310 312 310 308 311 309 305 302 299 297 297 298 298 298 296 294 293 292 292 292 292 293 294 294 293 292 292 292 291 291 291 291 291 290 290 289 289 289 290 290 290 290 290 290 290 289 289 289 289 288 288 287 287 286 285 285 285 284 283 283 282 282 282
315 316 317 317 317 318 320 319 320 320 312 308 313 313 312 315 314 312 313 310 305 306 309 311 310 305 304 307 305 298 297 298 296 297 298 297 296 296 294 293 291 290 290 291 293 293 293 292 291 291 291 291 291 291 291 291 291 290 290 290 290 290 290 290 290 290 289 289 289 289 289 288 288 288 287 286 286 285 285 284 284 283 283 282 282 282
316 315 316 318 316 316 319 318 316 315 309 307 311 312 309 309 306 306 312 312 306 305 306 309 311 305 299 300 299 297 297 297 295 296 297 296 294 295 294 291 289 289 290 290 292 293 294 292 291 291 291 291 292 292 292 292 293 292 291 291 292 291 291 290 290 289 289 289 289 289 288 288 288 287 287 286 286 285 285 284 284 283 283 282 282 281
313 312 313 317 315 314 315 313 310 310 308 306 306 304 303 304 303 304 309 309 307 306 304 306 310 305 296 295 298 298 296 295 295 295 294 294 294 293 292 290 288 288 290 290 290 292 293 293 291 290 290 290 291 292 293 293 294 294 293 293 292 292 291 291 290 290 290 289 289 289 288 288 287 287 287 286 286 286 285 285 284 284 283 282 282 281
311 309 311 315 316 316 317 314 310 308 307 305 305 302 300 300 299 300 305 306 304 303 302 303 304 300 293 295 300 300 295 293 295 294 292 293 294 294 295 293 289 287 289 289 290 292 293 292 291 290 290 289 290 291 292 292 292 292 292 292 292 292 292 291 291 291 290 290 289 289 288 288 288 287 287 286 286 286 285 285 284 284 283 283 282 281
311 309 310 314 315 314 313 308 304 303 302 302 303 302 301 301 298 296 298 299 299 299 299 298 297 296 294 295 297 297 295 292 293 294 292 292 293 293 294 291 286 286 288 289 290 292 293 292 291 290 290 289 289 289 290 290 290 290 291 291 291 291 291 290 290 290 290 289 289 288 288 287 287 286 286 286 285 285 284 284 283 283 283 283 283 282
309 309 311 313 312 310 308 304 301 303 305 304 302 302 302 301 297 295 294 295 296 298 297 295 293 294 296 295 293 295 296 292 291 293 293 292 292 292 290 287 285 286 288 288 289 291 291 292 290 289 289 288 287 288 289 288 288 289 288 289 289 289 289 289 289 289 289 288 288 287 287 286 286 285 285 285 284 284 284 283 283 283 283 283 283 282
307 310 310 311 311 311 311 308 305 308 312 309 304 303 302 298 294 295 295 294 296 297 296 296 294 293 293 292 291 294 297 292 289 291 292 291 291 290 286 285 285 286 286 287 288 289 290 290 289 288 287 287 287 287 288 287 287 287 287 287 287 287 288 288 288 288 288 287 287 287 286 286 286 285 285 284 284 284 283 283 283 282 282 282 282 281
309 311 309 310 312 312 311 309 305 307 313 312 305 302 300 295 293 294 295 294 295 295 295 296 297 295 293 291 289 292 295 292 289 291 292 291 288 287 285 285 285 285 286 287 287 287 288 288 287 287 286 286 286 286 286 285 285 285 286 286 286 286 286 287 287 287 287 286 286 286 286 286 286 285 285 285 284 284 284 283 283 283 282 282 282 281
Wind_Speed
3 3 2 5 7 8 9 9 7 5 6 6 5 4 4 4 4 5 4 6 2 4 6 8 8 11 11 13 11 4 6 8 10 10 10 10 9 9 10 11 12 12 9 10 16 21 22 22 21 22 22 22 21 20 21 22 22 22 23 23 23 24 24 26 27 27 27 26 25 24 23 23 23 22 22 21 21 21 21 21 21 21 21 21 21 21
4 4 8 10 9 8 8 7 5 5 4 4 4 3 3 4 5 7 4 5 1 3 6 5 6 12 12 13 11 3 6 9 12 12 14 14 12 10 11 13 12 9 4 8 14 19 22 22 22 23 23 24 23 22 23 23 24 23 23 24 24 24 24 25 26 27 27 26 25 24 24 24 24 23 23 22 21 21 21 21 21 21 21 21 21 21
2 4 12 9 5 5 3 4 6 4 2 2 3 2 3 3 4 6 4 4 1 4 4 3 4 10 12 11 11 8 8 11 12 13 15 13 12 12 12 13 11 8 7 8 11 17 22 23 23 24 23 24 25 24 24 24 25 25 24 24 25 25 25 24 24 25 25 24 24 24 25 25 24 23 23 23 23 22 22 22 22 22 22 22 22 23
2 6 11 6 8 7 3 4 6 3 1 3 3 3 4 3 2 4 4 4 1 2 2 3 4 9 12 9 10 12 10 10 11 12 13 11 12 14 13 11 11 12 11 10 10 13 19 22 24 25 24 24 25 25 25 25 26 26 26 25 25 26 25 24 24 24 24 25 24 25 26 25 24 24 24 24 24 24 24 24 24 24 24 24 24 24
6 6 3 6 8 8 5 4 6 5 3 4 5 6 5 4 6 6 4 4 3 3 2 2 5 8 8 7 9 8 5 8 10 9 12 13 12 12 10 9 11 13 12 12 12 12 17 22 24 25 25 24 25 27 27 27 27 28 27 26 27 27 26 26 26 26 26 27 27 27 26 24 24 26 26 26 26 25 25 26 25 25 25 24 24 24
7 5 4 7 5 6 7 4 5 7 4 5 5 10 10 9 8 6 2 4 4 5 3 2 3 6 5 5 8 5 5 8 8 7 13 15 11 9 10 11 10 10 11 12 13 14 18 21 23 24 25 26 27 28 28 28 27 28 28 27 28 28 27 28 28 27 28 29 30 29 27 26 27 27 25 27 28 27 26 26 26 26 25 25 25 25
5 3 5 7 6 6 6 4 6 7 5 3 5 9 11 8 6 5 2 2 0 4 3 2 3 6 7 6 7 5 6 10 9 8 12 13 9 8 10 10 9 9 10 10 11 13 17 21 23 24 27 29 28 29 28 28 27 28 28 28 30 30 29 29 29 28 29 29 29 28 27 29 30 29 25 26 28 28 27 27 28 28 27 27 27 27
4 4 4 6 5 6 5 4 6 8 8 3 5 5 8 8 7 6 6 4 3 3 4 1 3 4 7 7 5 3 6 11 11 12 13 12 10 9 10 10 10 11 11 11 11 13 16 22 26 27 30 31 29 28 28 29 29 29 29 29 30 31 30 30 30 29 29 29 28 27 29 31 32 32 29 28 29 29 30 30 31 30 30 29 28 27
4 7 7 8 5 4 6 5 7 10 6 5 3 6 6 6 6 5 5 3 1 3 5 5 2 3 7 6 5 3 4 9 12 14 15 14 11 10 11 11 10 10 10 11 12 13 17 24 28 29 29 30 28 27 29 30 30 30 30 30 31 31 31 31 30 30 30 29 27 28 31 32 30 31 32 31 31 31 32 33 33 32 31 30 28 27
1 5 7 8 6 6 5 2 8 11 5 4 5 7 5 5 5 4 5 3 2 2 8 8 4 3 6 4 4 3 2 8 11 11 12 11 10 9 9 9 9 8 8 9 10 13 18 24 26 26 26 27 27 26 28 30 30 31 31 31 31 31 31 31 31 31 30 29 29 31 34 33 31 32 34 34 34 34 34 35 34 33 32 30 29 27
2 1 2 4 4 5 4 2 2 6 6 5 6 6 6 6 5 3 3 3 2 3 9 9 8 6 6 3 5 4 4 7 8 8 9 9 8 8 8 6 6 6 7 8 7 10 15 19 21 22 24 26 26 26 28 30 31 32 32 32 32 31 31 31 31 32 31 31 32 34 34 34 34 35 37 37 37 36 36 36 36 34 33 31 29 28
4 2 2 2 2 4 6 5 3 2 4 5 4 5 4 4 4 4 4 3 1 6 6 4 5 8 7 6 5 6 6 7 8 8 10 10 9 7 6 5 5 6 6 7 7 8 12 15 19 22 24 27 27 27 30 32 33 34 34 33 32 31 31 32 32 32 32 33 34 35 34 35 36 37 39 41 41 40 39 39 37 36 34 32 30 28
2 4 3 3 1 4 6 4 4 4 2 4 4 6 4 2 3 3 3 0 3 7 4 0 3 4 8 9 8 9 10 11 10 9 10 10 10 7 5 5 5 5 6 7 7 8 9 12 18 23 26 28 29 30 32 34 34 35 35 35 34 33 33 33 33 33 34 35 35 35 35 36 37 39 41 43 43 42 41 41 40 38 36 34 32 30
3 5 3 1 2 3 8 7 2 1 4 5 5 6 5 2 0 3 4 2 4 6 3 1 1 3 5 6 11 15 15 13 10 9 9 10 10 8 6 5 5 6 7 7 8 9 10 13 19 24 27 30 31 32 33 34 35 35 35 35 35 34 33 34 34 35 35 36 36 36 36 37 39 41 44 45 45 43 42 41 40 39 37 36 34 32
5 6 5 7 3 6 10 9 5 6 5 5 4 5 5 5 4 4 4 4 5 4 4 2 2 4 3 3 8 11 10 9 9 9 9 10 9 6 6 5 5 6 7 7 8 10 11 15 21 24 27 30 31 33 33 34 35 35 35 36 35 35 35 35 35 36 36 36 36 37 37 38 40 43 45 46 45 44 43 41 40 38 37 35 34 32
5 7 6 3 1 9 11 5 5 7 3 3 2 4 4 6 5 2 3 5 2 3 4 3 3 5 4 6 8 7 7 8 7 9 10 12 9 3 5 7 6 7 7 7 8 9 11 17 22 24 27 29 31 33 33 34 35 36 36 36 36 36 37 37 37 37 37 37 37 38 39 40 41 44 46 46 45 44 42 41 39 38 36 34 33 33
4 5 4 1 2 5 6 4 4 4 4 2 3 4 4 4 6 2 3 1 3 3 5 3 5 5 3 7 8 6 9 10 8 9 10 11 8 4 7 7 6 6 7 8 8 8 10 15 20 23 26 28 30 32 33 34 36 37 38 37 37 36 37 38 38 38 38 38 38 39 40 41 43 45 46 46 45 43 41 40 38 37 36 35 34 33
5 3 4 2 2 3 1 3 3 3 3 6 4 6 2 2 2 2 2 3 3 4 5 2 5 4 1 5 5 0 7 11 11 11 10 11 8 7 10 8 6 7 7 7 8 7 9 14 18 22 25 27 30 32 34 35 37 37 38 38 37 37 38 39 39 39 39 39 39 40 41 42 44 45 45 46 45 43 42 40 38 37 36 35 34 33
4 3 4 1 3 3 3 3 2 5 2 5 4 5 4 2 1 2 2 2 1 3 5 3 4 4 5 6 3 3 8 10 11 11 9 11 10 9 11 8 6 6 6 6 7 7 8 13 18 22 24 27 30 32 33 34 35 36 37 38 38 38 38 39 39 39 40 40 40 41 42 43 44 45 45 45 44 43 42 41 40 38 37 36 35 34
3 4 3 1 1 1 2 2 4 1 2 3 2 2 2 2 3 3 3 3 3 3 3 3 3 3 6 7 7 10 10 9 9 9 8 11 11 10 11 7 5 6 7 7 8 8 8 13 19 23 25 28 30 31 32 33 34 35 35 36 37 36 37 39 40 40 40 40 41 41 42 43 44 44 45 45 44 44 42 41 41 39 38 37 36 34
2 4 4 2 2 1 2 4 8 10 7 4 4 5 3 1 2 1 1 2 4 2 2 3 6 6 5 5 9 11 10 10 10 8 7 9 10 10 9 6 5 6 7 7 7 7 8 12 18 22 24 26 28 29 31 33 34 35 34 36 36 36 37 39 40 41 41 41 41 42 43 45 44 44 44 44 44 44 43 42 41 40 39 38 36 35
3 4 4 2 1 4 5 4 6 10 8 7 7 9 9 7 5 3 3 1 2 2 4 2 7 9 4 4 7 7 7 9 8 7 7 8 9 9 7 5 6 6 7 7 7 7 8 11 17 21 23 26 27 29 31 32 33 34 34 35 36 37 38 40 41 41 40 40 41 42 44 45 45 44 44 44 44 44 43 43 41 40 39 38 37 35
4 3 4 3 4 6 6 3 2 4 3 2 3 5 7 7 6 6 5 3 2 2 3 4 4 10 3 4 5 5 4 5 4 6 7 8 8 8 8 5 5 6 6 7 7 7 8 12 17 20 23 25 27 29 31 32 33 34 34 34 36 37 39 39 41 41 40 40 41 42 43 44 44 44 44 44 44 44 44 43 42 41 40 38 37 36
3 3 4 2 2 3 4 4 2 1 2 1 2 1 5 7 6 5 4 4 4 4 4 4 5 9 2 1 2 4 5 4 3 6 7 7 8 7 8 6 4 6 5 6 6 6 8 12 15 18 21 24 26 28 31 33 34 34 34 34 36 38 38 39 40 41 41 41 41 41 42 43 43 44 44 44 45 45 44 43 43 41 40 39 37 37
5 5 5 3 1 3 4 3 2 0 2 3 3 3 7 11 8 3 1 2 2 8 9 5 8 9 2 3 3 2 4 5 6 6 6 6 8 8 6 5 5 5 5 6 6 6 8 10 13 16 20 24 26 28 30 32 33 34 35 35 35 36 37 38 40 41 41 41 40 41 42 43 43 44 45 45 45 45 44 44 43 42 41 40 39 38
7 6 8 8 8 9 8 7 5 4 3 2 4 7 10 12 12 6 2 3 7 9 8 7 11 9 1 2 4 3 4 5 7 6 5 7 8 8 6 5 5 5 6 7 7 7 8 9 11 16 21 23 26 28 30 31 33 34 34 35 36 36 37 38 39 40 41 41 41 41 42 43 44 45 45 45 44 44 44 44 43 42 41 40 39 38
3 5 11 12 13 15 12 6 5 9 8 7 10 12 12 12 13 10 5 7 8 3 4 11 14 13 9 4 4 5 4 5 7 6 6 7 7 7 7 6 5 5 6 7 7 8 9 10 11 15 20 23 25 28 30 31 33 33 34 35 36 36 37 38 39 40 41 41 41 41 42 43 44 44 43 43 43 43 44 43 42 42 41 40 39 38
3 4 12 15 16 17 14 8 9 13 12 14 15 14 14 13 13 12 12 15 9 3 8 15 10 12 20 12 7 8 6 5 8 8 8 7 7 7 6 5 5 6 5 6 8 9 11 11 11 13 19 23 24 27 29 30 32 33 34 35 36 36 37 38 39 40 40 40 40 41 42 42 42 42 41 41 42 42 43 43 42 41 41 40 39 38
4 5 9 13 14 16 16 10 10 11 11 13 16 16 17 16 16 18 21 21 11 7 17 17 10 13 23 14 8 9 8 9 12 11 8 7 7 8 6 5 6 7 6 7 10 11 12 12 11 12 17 21 24 26 28 29 31 33 34 35 36 37 37 38 39 39 39 40 41 41 40 39 39 39 40 40 41 42 42 43 42 41 41 40 39 38
4 4 5 8 10 15 17 9 9 11 9 10 14 17 18 19 22 24 24 23 16 14 20 18 9 16 20 8 5 8 9 10 10 7 6 8 9 10 8 8 8 8 8 10 11 12 12 11 10 12 16 20 24 26 27 28 30 32 33 33 35 36 37 37 38 38 39 39 40 38 36 36 37 38 39 40 41 41 42 42 42 41 41 40 39 38
3 3 2 4 5 13 13 6 8 9 9 9 10 12 16 19 22 23 20 18 15 15 20 17 14 18 13 3 6 9 7 7 8 7 9 9 9 10 9 9 10 9 10 11 11 11 10 10 10 11 15 21 25 27 27 28 28 29 31 32 34 35 36 36 36 36 37 37 36 35 34 35 36 37 38 39 39 40 40 40 40 40 40 40 39 38
3 3 2 4 5 12 9 6 8 7 5 7 8 11 17 18 16 15 15 14 14 16 18 15 14 18 11 4 7 9 4 6 10 11 11 10 9 9 9 10 10 11 11 12 12 10 10 10 11 12 16 22 26 28 29 29 27 28 30 31 32 32 33 34 35 35 35 34 34 34 34 34 35 35 37 37 38 38 38 38 39 39 39 39 38 38
5 4 1 4 6 11 5 7 8 5 3 7 12 17 19 14 10 11 13 15 16 15 13 12 14 18 15 9 9 9 6 9 11 11 11 11 9 8 9 11 11 12 12 11 10 9 9 10 12 16 19 23 27 30 31 31 30 31 31 31 30 31 32 33 34 33 33 32 33 34 34 34 34 35 36 36 37 38 37 37 38 39 40 39 38 38
6 7 4 4 4 7 4 7 6 5 8 9 8 11 15 14 13 14 15 16 16 13 12 13 15 17 15 12 11 11 11 12 11 10 7 6 6 7 9 11 11 11 11 9 8 9 9 9 12 16 20 23 26 29 29 30 30 30 30 30 30 31 33 33 33 33 32 31 31 32 32 33 33 34 34 35 36 37 37 38 38 39 40 39 39 38
6 7 5 3 2 3 4 6 4 8 10 7 2 2 9 15 18 18 17 17 16 15 17 18 19 19 18 15 11 11 12 11 9 7 5 4 7 9 10 10 9 9 9 8 8 8 7 9 12 16 20 24 25 25 26 28 28 27 27 29 30 31 32 32 32 31 32 32 32 32 31 32 32 32 33 34 35 36 36 37 38 38 39 39 40 40
8 7 4 3 3 2 3 5 7 4 3 4 4 2 2 6 11 12 12 16 18 18 18 19 21 22 19 17 14 12 9 7 6 5 6 8 10 8 8 9 8 8 9 9 9 9 10 14 17 20 22 22 23 24 26 27 27 26 27 28 29 30 30 31 30 29 30 31 31 31 31 31 32 33 33 34 34 34 35 36 37 38 38 39 39 40
8 7 4 4 5 4 4 6 5 4 6 8 6 4 4 6 10 11 8 14 17 17 17 17 20 21 18 18 17 10 3 6 10 8 7 9 10 8 9 9 7 8 8 7 8 10 12 15 17 18 19 20 23 25 26 26 27 27 27 27 28 29 29 29 30 30 31 31 31 32 32 33 33 34 33 33 33 34 34 35 37 38 38 38 39 40
9 8 8 7 5 4 5 6 3 3 9 10 6 7 9 9 11 12 8 10 11 12 15 15 17 19 18 17 14 4 5 4 11 9 4 6 8 6 5 4 3 3 4 4 5 5 6 9 12 15 18 20 22 23 24 26 27 26 26 26 27 27 28 28 30 31 32 32 32 33 34 33 33 33 32 32 33 34 35 35 36 37 38 39 39 41
11 9 9 8 5 4 6 6 5 6 8 6 5 7 7 7 9 10 3 8 7 9 13 15 17 19 17 14 7 4 5 5 11 8 4 4 4 2 1 2 4 4 3 4 7 8 10 11 13 15 18 19 20 21 23 25 26 26 24 24 25 25 26 28 30 31 31 31 31 32 32 32 32 32 32 33 34 34 35 36 37 37 37 39 40 40
10 7 7 9 8 7 8 6 4 5 6 4 5 5 4 5 10 11 2 8 6 7 9 14 17 16 11 7 4 6 7 8 8 5 3 1 2 3 3 3 4 4 6 7 9 11 14 15 16 18 19 20 21 22 24 25 26 25 23 23 23 25 27 29 30 29 29 29 28 29 30 30 31 32 32 33 34 35 35 36 36 36 37 38 39 39
6 5 6 8 9 9 10 7 3 4 5 5 6 5 5 5 6 7 7 6 6 6 5 8 12 9 6 7 6 6 7 6 3 2 2 2 4 4 4 5 6 6 8 10 12 14 16 16 17 18 18 19 21 23 24 26 26 24 22 23 24 27 27 27 25 25 25 25 26 27 28 29 31 32 33 33 33 34 34 35 35 36 37 37 37 37
5 4 4 7 8 8 7 6 3 5 5 5 6 4 5 5 5 8 6 1 5 7 5 5 7 6 6 7 7 6 4 2 1 1 1 3 5 4 3 5 8 9 10 12 14 16 17 16 15 16 15 17 20 23 25 26 25 22 22 24 25 25 23 22 21 22 23 24 25 27 28 29 30 30 31 31 32 32 33 33 34 35 35 35 36 36
7 6 4 6 6 4 4 5 5 5 4 10 12 4 3 5 6 5 2 2 2 5 5 5 5 5 6 6 5 3 1 3 3 3 4 4 4 4 4 4 6 8 10 12 13 15 17 17 16 15 14 15 18 21 23 24 22 20 21 22 21 20 19 19 19 20 21 22 24 25 26 27 27 28 29 30 31 31 32 32 33 33 33 34 34 34
5 6 4 4 5 4 5 7 5 3 6 12 12 6 6 6 4 4 5 3 2 3 5 4 4 5 6 6 5 4 3 3 3 3 4 4 4 4 4 5 7 8 10 13 13 14 18 19 17 16 15 15 17 18 20 21 19 19 19 17 16 16 15 15 16 17 18 20 21 22 23 24 25 26 27 29 29 30 31 31 31 31 31 32 32 32
6 6 4 4 5 4 4 6 3 2 5 7 5 2 4 4 3 4 6 5 3 4 4 4 4 5 5 6 6 5 3 4 4 4 4 4 4 4 4 5 7 9 11 13 13 15 18 20 20 18 16 15 15 16 17 17 16 16 16 13 11 12 12 12 14 15 16 17 18 19 20 21 23 24 26 27 28 29 30 30 30 30 30 31 31 32
3 4 2 2 4 2 1 3 3 2 5 7 3 1 2 2 2 4 5 4 4 5 4 4 5 6 6 7 6 5 4 5 5 4 4 5 4 4 5 6 8 9 11 13 13 15 18 20 20 19 18 15 13 14 14 13 11 10 10 9 7 7 8 9 11 12 13 14 15 16 18 20 21 23 24 25 27 28 29 30 30 31 31 31 32 33
2 3 2 2 5 5 3 5 5 3 6 7 4 1 2 2 2 3 4 4 5 5 4 5 5 6 7 6 6 7 6 6 6 5 4 5 5 4 5 5 7 8 10 11 12 14 17 19 18 18 17 15 12 12 12 10 7 6 6 6 6 6 7 8 9 10 12 13 14 15 17 19 20 22 23 25 26 27 28 29 30 30 30 31 31 32
3 5 5 3 5 5 3 3 1 1 3 3 2 2 3 3 3 3 2 3 4 5 4 4 5 7 6 5 6 8 7 5 6 7 5 4 4 4 4 5 7 8 10 11 12 14 17 18 18 17 16 15 13 11 11 10 8 7 6 6 6 7 8 9 10 11 12 13 14 15 17 18 19 20 22 23 24 26 26 27 28 28 30 30 30 30
4 6 5 3 3 2 2 2 1 3 4 4 4 4 4 4 5 4 3 4 6 6 5 4 3 4 6 6 6 9 8 6 6 7 7 5 5 4 4 6 8 9 10 11 12 13 15 17 18 17 16 15 13 12 12 12 10 9 8 7 7 7 8 9 10 10 10 10 12 13 13 15 16 17 17 18 19 21 22 23 24 25 27 27 27 28
4 5 4 4 3 4 7 6 7 4 2 5 8 9 7 6 7 7 6 6 6 6 7 7 4 3 3 5 6 8 9 7 5 6 7 6 5 6 7 8 9 10 10 11 11 11 13 15 16 16 16 15 13 13 13 12 10 9 9 9 8 7 6 7 7 8 7 7 7 8 9 10 11 12 13 14 15 16 17 19 20 22 23 24 24 25
5 6 6 6 5 7 8 8 9 6 3 5 8 10 8 7 8 9 8 8 8 7 8 9 7 4 3 3 4 6 8 8 7 7 7 5 6 8 10 10 11 12 12 12 13 14 15 15 16 17 17 16 15 14 14 12 11 9 8 8 7 7 6 6 6 5 4 3 3 4 4 5 7 8 9 10 12 13 14 16 17 18 20 21 23 24
Wind_Direction
98 115 176 210 211 201 201 201 187 163 134 122 129 139 187 203 265 258 250 287 226 158 246 228 231 254 256 265 267 212 166 215 241 246 246 239 232 227 223 226 223 226 228 203 198 202 202 203 202 198 199 204 202 201 201 196 195 192 187 184 180 178 178 175 171 169 169 164 159 157 155 152 151 154 158 161 164 164 165 164 163 163 163 164 162 162
83 146 225 228 210 195 198 195 154 124 116 97 125 173 249 212 248 259 240 300 316 170 263 251 237 260 255 258 267 212 168 224 231 232 240 235 232 230 225 228 224 222 205 180 194 198 199 201 200 199 198 202 203 199 198 196 195 192 187 184 182 181 178 174 171 169 169 169 168 166 162 158 154 155 159 160 162 162 161 160 161 161 160 161 160 160
63 220 241 231 162 122 130 163 150 146 150 108 119 162 259 245 269 279 274 317 8 178 266 287 255 265 260 254 260 240 215 234 229 224 236 234 231 231 225 228 220 210 199 187 193 192 196 199 195 197 199 201 204 199 197 198 195 191 187 185 183 182 179 175 172 170 171 173 173 170 164 161 159 157 159 159 159 161 161 160 160 159 159 159 158 157
163 248 248 201 135 131 117 122 134 133 206 194 166 173 244 253 261 275 291 322 308 193 268 299 294 274 268 260 256 248 235 248 247 235 243 238 232 234 227 224 213 208 206 194 194 191 194 196 193 196 198 199 201 198 196 195 193 190 186 186 184 181 179 178 177 177 177 174 170 165 160 160 160 157 157 155 155 159 159 158 158 158 158 159 158 158
215 253 248 132 148 166 148 121 137 153 239 241 202 194 219 228 218 230 284 324 332 344 347 323 309 280 267 257 253 265 276 267 258 244 253 248 237 241 240 231 217 210 205 193 194 192 190 194 194 195 197 197 198 198 196 193 192 189 185 186 185 181 181 183 183 182 179 171 164 159 153 151 151 150 153 152 151 155 157 156 156 157 159 160 159 159
250 246 111 114 150 163 152 164 175 171 206 276 228 204 213 216 221 237 316 4 359 328 331 25 300 278 291 274 257 288 319 276 261 239 250 253 242 237 239 235 221 211 205 195 194 191 190 192 192 193 195 197 199 199 195 192 193 190 186 187 187 184 184 186 186 183 178 171 165 161 157 153 148 145 150 153 153 156 157 156 156 157 158 159 157 155
246 229 115 123 145 153 162 209 218 176 158 271 246 206 209 202 202 216 179 92 242 261 283 92 207 268 305 290 254 262 271 265 267 256 254 258 249 231 233 233 220 208 202 196 194 189 189 189 187 191 195 196 199 199 194 191 192 192 189 189 190 187 186 188 186 182 177 173 171 170 171 169 161 155 155 157 157 158 158 155 154 153 153 153 152 150
195 191 119 121 122 138 169 221 219 168 145 239 253 177 176 177 188 195 170 185 234 266 306 13 161 262 290 275 261 263 267 272 273 267 264 260 249 236 235 232 218 209 198 190 193 188 189 190 190 192 194 196 198 196 193 190 191 192 191 191 191 189 189 189 187 183 179 177 177 177 175 171 167 164 161 160 158 156 156 153 151 150 149 149 149 148
163 179 182 165 147 165 195 213 183 156 158 244 219 128 142 156 165 155 139 185 290 20 298 283 136 247 265 264 299 323 265 271 270 263 264 262 255 244 239 234 222 212 199 192 192 190 190 192 194 194 192 194 195 194 193 191 190 191 190 190 190 190 191 190 187 184 181 182 185 183 175 168 166 165 162 162 160 156 155 152 151 151 150 149 149 149
160 197 193 165 170 202 207 225 173 165 187 214 132 96 77 78 81 84 108 131 50 37 255 249 161 226 264 237 267 320 224 254 263 262 263 264 262 251 245 242 224 207 200 197 194 192 193 194 194 192 189 190 192 193 193 191 191 191 191 190 190 191 192 191 189 186 184 185 187 183 177 172 168 164 161 161 160 157 156 155 153 153 152 152 151 151
298 293 189 157 181 189 141 71 169 170 161 137 107 69 46 36 40 41 61 83 54 266 250 237 178 197 268 243 219 233 209 226 245 262 271 274 276 263 255 253 223 201 196 193 189 186 187 190 190 188 187 188 190 191 192 192 192 192 192 192 192 193 193 192 192 190 187 187 187 184 181 179 174 168 163 161 160 160 159 158 156 156 155 154 154 153
335 344 249 234 180 131 99 69 20 60 119 112 91 82 66 351 9 15 2 48 218 249 252 251 162 178 238 255 236 245 247 239 232 243 261 269 273 268 267 261 222 201 191 181 178 174 171 176 183 185 186 186 187 189 191 191 192 191 192 192 191 193 194 192 192 193 191 188 187 186 185 184 179 175 170 166 164 164 163 161 158 158 157 156 156 155
292 233 266 313 217 144 114 90 30 22 84 102 103 109 105 324 355 344 305 132 233 254 260 339 119 185 238 251 252 256 256 249 236 232 244 257 264 270 278 259 216 192 185 181 178 176 174 177 182 184 184 186 187 189 190 191 190 190 191 192 191 192 193 193 192 193 193 190 190 189 187 186 183 180 176 171 169 168 167 165 162 161 160 160 159 158
270 289 292 191 254 186 154 162 166 182 184 161 149 143 141 152 190 266 269 270 262 269 285 266 179 241 267 258 241 237 239 243 246 246 245 251 256 261 269 245 207 196 190 187 184 183 187 186 185 185 185 186 188 189 189 190 190 189 190 191 192 192 193 194 194 193 193 192 193 192 190 188 185 182 179 175 173 172 171 169 167 166 165 163 162 160
216 278 217 179 209 187 181 192 167 139 165 186 157 140 159 163 168 215 221 230 258 285 300 279 202 200 207 258 244 234 247 258 262 271 269 265 259 252 258 241 209 206 199 192 193 193 194 189 187 188 188 188 189 188 189 189 189 189 189 191 191 192 193 194 195 194 194 194 194 193 192 190 188 184 180 177 176 175 174 173 171 169 168 165 163 161
200 260 240 207 191 170 181 196 119 109 147 222 114 118 191 186 166 208 209 180 194 302 295 237 223 216 206 270 271 252 270 273 266 277 277 272 275 277 262 243 214 210 202 197 199 198 196 191 189 190 190 190 189 188 188 189 189 190 190 191 193 194 195 195 196 196 196 196 195 194 193 191 188 184 180 178 178 178 177 176 174 171 170 167 165 164
179 271 279 358 14 177 184 177 128 137 177 164 142 177 208 170 145 177 269 70 83 268 268 200 235 287 315 282 275 246 254 265 271 270 262 264 281 299 268 242 217 217 203 200 203 197 194 192 192 194 192 191 190 189 189 190 191 192 192 192 193 194 196 196 197 198 198 198 197 195 194 192 188 184 182 181 180 179 179 177 176 174 171 170 168 167
168 256 290 116 182 257 242 123 72 17 132 129 182 202 150 79 104 116 247 343 41 251 271 222 233 276 291 273 306 284 234 252 258 256 257 268 277 276 267 245 213 217 206 201 203 195 193 193 193 196 195 194 193 191 191 191 192 194 195 194 193 194 195 196 197 198 199 199 198 196 194 192 188 185 184 183 182 181 180 179 178 176 174 172 172 170
163 220 299 76 186 281 3 104 62 351 74 131 183 186 125 135 215 120 172 232 201 247 286 288 252 243 202 228 274 216 217 232 249 253 255 262 261 260 265 251 208 209 207 200 198 193 192 194 194 195 195 196 195 194 193 193 193 194 196 197 197 198 198 198 198 198 199 199 199 198 195 192 190 187 186 186 185 184 183 182 180 178 176 175 175 174
147 200 266 340 217 301 15 158 182 221 27 64 113 147 119 158 178 163 167 170 170 224 284 308 301 249 218 209 199 212 219 215 236 250 246 251 252 252 260 251 205 203 209 204 199 197 191 192 195 195 195 196 196 196 195 193 194 195 196 197 198 199 199 198 199 198 198 199 199 198 196 193 191 189 188 188 187 186 186 185 182 181 179 178 178 177
127 211 234 334 341 158 196 217 191 180 169 156 166 172 182 140 107 159 205 133 137 169 219 290 292 263 237 204 192 206 215 206 219 232 235 248 250 251 261 256 213 204 211 210 199 197 193 190 193 194 196 197 196 196 196 195 195 195 196 197 198 198 198 198 198 198 198 199 198 198 196 194 193 191 191 190 189 189 188 187 185 183 182 181 181 180
184 202 179 152 220 204 220 244 203 190 184 179 188 191 187 173 147 174 236 200 125 172 183 200 275 266 241 192 199 206 206 208 215 215 228 253 256 264 278 250 212 207 207 207 198 193 191 187 188 190 192 195 195 197 197 197 197 196 197 197 197 198 199 198 197 197 198 198 198 199 197 195 194 193 192 192 191 191 191 189 188 186 185 184 184 183
157 120 158 186 217 219 237 268 205 201 193 160 201 201 182 174 165 172 210 216 167 220 182 129 272 273 252 165 208 238 237 226 212 197 223 258 266 277 284 253 216 212 203 196 194 190 188 187 186 187 190 194 196 197 197 198 199 199 198 197 196 198 199 199 198 198 198 199 200 200 199 197 196 195 195 194 194 193 193 191 190 189 188 187 186 186
116 122 182 225 311 305 304 331 16 78 106 172 249 184 164 189 190 172 190 185 165 208 188 128 256 264 283 64 241 266 276 271 240 207 219 264 276 274 275 263 225 213 199 186 188 185 183 183 184 187 192 195 197 198 199 199 200 200 200 199 198 198 199 199 199 198 198 199 200 200 200 199 198 197 197 197 196 195 195 194 192 192 191 190 190 189
177 184 183 176 273 311 317 310 296 214 147 198 222 192 191 198 188 153 99 122 194 222 189 171 246 246 264 330 295 314 319 292 264 233 209 244 268 270 271 261 226 208 190 180 184 184 183 183 187 192 196 197 198 199 200 200 201 201 201 200 200 199 199 200 199 199 199 199 200 200 201 201 200 199 199 199 198 198 197 196 195 194 194 194 194 193
177 185 181 181 206 224 226 226 219 182 145 194 215 200 204 198 184 188 200 182 228 229 182 189 242 247 276 319 285 320 328 282 272 269 238 233 252 268 274 260 231 206 189 187 188 190 193 193 195 197 199 200 201 200 201 201 202 202 202 202 201 200 200 200 200 200 200 200 200 201 202 202 202 202 201 201 200 199 199 198 198 197 196 197 197 196
150 192 194 194 207 217 225 220 153 134 145 204 215 201 203 203 194 197 209 212 219 217 198 219 234 252 261 235 237 276 266 252 272 283 267 251 254 263 262 252 236 214 199 192 190 194 200 203 203 201 202 203 203 203 202 202 202 202 202 202 202 202 201 200 200 200 200 201 201 202 203 203 204 203 202 202 201 201 201 200 200 199 199 200 200 200
118 206 203 203 212 223 234 223 152 147 169 200 208 202 203 203 193 196 214 221 202 133 249 236 204 242 258 240 216 245 241 244 262 254 249 254 255 253 247 235 230 224 211 198 199 204 205 206 206 202 202 203 203 205 205 204 203 203 203 203 201 201 201 201 200 200 200 201 201 204 205 205 204 204 203 203 202 202 203 202 202 202 202 202 203 204
155 213 210 211 220 231 238 220 169 172 185 195 203 204 203 198 193 202 217 223 201 179 244 241 173 215 253 247 212 222 216 225 242 242 242 246 247 248 236 224 233 229 216 212 213 213 211 210 207 200 200 201 202 205 206 205 204 203 203 203 201 201 202 201 200 200 200 201 203 205 206 204 204 204 203 203 203 204 204 204 204 204 204 205 206 207
187 214 203 205 223 241 244 219 175 192 202 202 207 206 202 198 199 207 217 222 214 213 241 250 224 236 254 253 220 219 205 224 248 254 242 234 238 243 233 228 238 232 222 223 224 221 216 213 206 196 197 200 202 205 205 205 205 202 201 201 201 201 201 200 200 199 200 201 203 204 204 204 203 203 203 203 204 205 206 206 205 206 206 207 208 209
211 204 147 143 213 248 247 201 169 195 206 217 223 217 213 210 207 212 218 220 219 229 244 254 261 260 257 227 246 244 210 231 266 264 244 235 233 237 235 234 240 239 234 233 232 227 217 210 202 195 198 202 203 203 204 206 206 203 201 201 201 201 200 199 199 199 200 202 202 202 203 204 204 203 203 204 204 206 207 207 207 207 208 209 210 211
181 194 75 105 212 247 237 165 169 185 194 229 239 226 222 218 211 211 216 215 210 220 237 246 255 259 251 209 252 259 217 229 253 252 252 253 238 231 236 239 240 242 241 238 235 228 214 206 201 200 203 203 202 201 203 204 202 201 201 201 199 199 197 197 198 199 201 201 200 201 202 203 203 203 204 204 205 207 208 209 209 209 210 211 212 212
160 168 147 140 209 250 236 146 154 154 171 238 238 226 221 213 201 208 219 223 214 209 221 227 234 248 253 245 252 260 244 236 243 243 248 255 249 235 234 238 241 242 241 241 238 227 215 211 208 207 206 202 201 203 203 201 198 199 200 198 196 195 195 196 197 198 200 200 199 200 201 202 203 203 205 205 206 208 209 210 210 210 211 213 214 214
167 174 185 162 197 244 207 123 126 181 215 231 232 219 210 195 190 205 219 223 216 209 220 232 240 249 256 251 246 251 249 243 243 245 250 258 256 247 241 239 239 244 247 249 242 225 216 214 210 209 209 206 205 205 202 200 199 199 197 194 192 192 193 195 196 197 198 198 199 201 201 202 203 204 205 207 208 209 210 211 211 212 213 214 215 215
167 178 184 159 180 221 153 122 163 215 223 238 292 205 200 195 195 207 223 227 219 216 226 239 248 252 253 254 250 249 253 255 259 265 270 253 234 233 244 245 239 244 252 251 242 229 214 204 201 203 207 207 205 200 196 196 197 194 191 190 190 191 192 193 195 196 196 196 197 200 201 202 203 204 206 208 209 210 211 211 212 213 214 216 217 218
170 181 176 160 183 181 140 181 213 235 269 278 292 286 198 175 183 199 231 240 228 219 222 231 242 248 253 258 256 251 260 288 296 261 228 234 235 227 237 245 236 233 239 236 230 220 208 204 203 202 202 199 195 191 190 192 190 186 186 187 188 189 190 192 193 195 196 196 196 198 200 202 204 206 208 209 210 211 211 213 214 215 216 217 218 220
175 178 179 190 200 187 185 215 237 329 300 261 247 225 172 152 165 176 214 244 233 218 215 223 237 246 250 254 256 259 327 341 305 272 223 227 238 225 224 236 236 235 239 235 229 225 219 213 207 200 193 187 187 188 188 187 185 182 181 183 185 187 188 190 193 195 197 197 197 199 203 205 206 207 208 209 210 212 214 216 217 218 218 219 219 221
196 191 190 200 205 187 199 225 233 263 257 250 223 190 180 174 173 169 192 248 241 213 206 215 230 239 242 248 253 260 56 331 282 276 253 239 244 235 236 263 285 268 248 219 201 193 192 194 189 186 183 179 181 185 184 182 181 179 178 180 183 185 186 190 195 197 198 199 200 202 205 206 207 207 208 210 213 216 218 220 221 221 221 221 222 223
210 207 198 201 200 181 198 218 209 217 245 249 200 180 176 169 149 133 165 261 239 196 191 199 218 232 235 239 236 126 109 257 264 270 290 293 297 313 322 10 36 57 95 138 154 147 149 160 164 168 172 171 172 178 181 181 179 176 177 180 182 184 189 195 199 200 201 202 203 204 205 207 209 210 212 216 220 222 223 224 224 224 224 224 225 226
206 203 198 204 204 195 201 212 214 229 246 228 191 185 179 160 130 117 181 258 221 190 189 191 210 229 222 202 168 142 177 229 247 260 280 307 32 32 56 83 81 89 102 118 138 143 146 152 153 155 163 168 171 175 178 178 177 177 178 179 181 188 196 201 203 203 203 203 204 205 207 210 212 215 219 223 225 227 226 226 225 225 226 227 228 228
198 190 193 207 209 204 206 213 229 251 237 203 186 180 161 138 133 159 215 232 178 182 203 189 203 219 183 158 169 188 211 234 239 244 264 117 95 61 58 83 95 102 109 118 131 136 138 144 149 153 161 169 171 174 177 177 175 176 177 179 186 195 202 204 203 203 203 204 206 209 213 216 219 222 225 227 228 228 227 227 227 227 228 229 230 230
180 183 191 204 207 207 210 209 222 254 233 151 129 147 154 152 185 205 218 191 149 174 193 189 198 201 173 177 198 208 231 314 1 161 125 100 108 100 87 95 96 96 105 115 124 129 129 128 133 140 151 164 170 173 176 175 173 174 178 184 192 199 202 202 204 205 207 209 212 215 218 221 224 226 228 229 228 227 228 229 229 230 230 231 231 232
178 174 184 196 193 187 198 198 205 246 212 131 118 123 210 200 204 201 165 75 140 162 165 187 207 193 174 189 210 202 141 47 63 101 94 87 101 105 101 103 100 96 100 105 113 123 123 117 117 124 135 152 164 169 173 173 170 172 180 189 196 199 201 205 208 209 210 212 214 218 221 224 227 228 229 229 228 228 229 230 230 230 231 231 232 234
184 174 182 199 189 167 188 206 202 195 176 151 141 163 208 199 186 162 141 141 185 172 159 181 210 201 181 176 171 154 128 110 113 113 102 96 97 97 91 90 92 93 97 100 108 120 120 113 110 115 125 144 158 166 173 174 171 175 184 193 199 201 204 208 208 208 210 212 215 219 223 226 229 230 230 230 229 228 229 230 230 230 231 232 233 234
204 192 186 191 191 178 189 210 199 148 176 172 149 164 189 159 143 152 138 135 184 197 174 170 190 192 175 155 144 140 146 155 150 133 121 113 98 92 90 84 86 95 102 104 110 120 121 117 118 120 124 139 155 164 173 178 179 182 187 192 198 203 205 206 206 208 211 215 219 223 226 228 229 230 231 231 230 229 229 229 229 230 231 232 232 233
226 209 193 168 186 198 241 209 173 161 201 193 172 189 176 133 142 158 135 135 182 188 171 171 176 171 166 158 146 140 156 159 143 126 124 121 104 92 92 83 80 90 100 101 103 113 118 118 120 122 121 129 147 159 167 176 182 182 182 185 193 201 202 202 205 210 215 220 223 225 227 228 229 231 232 232 232 233 233 232 231 231 231 231 231 233
274 208 180 166 181 188 223 212 177 178 202 189 165 165 175 157 185 182 161 165 175 169 169 172 159 151 159 166 153 145 149 149 137 128 125 120 116 112 106 95 87 90 99 104 110 120 123 120 120 122 122 125 136 147 155 162 166 165 169 176 179 183 189 194 201 206 211 216 220 222 224 226 227 229 230 230 231 232 233 233 233 232 231 231 232 233
210 176 170 198 192 180 210 230 198 332 282 226 181 181 182 181 194 198 182 150 132 127 135 145 144 149 160 169 156 143 142 149 147 140 136 134 132 128 120 119 119 113 114 122 129 132 131 129 128 130 129 127 131 138 139 135 132 134 147 163 169 174 182 189 195 203 208 211 216 219 221 224 226 227 228 229 229 230 231 232 233 234 236 238 238 239
149 155 172 183 169 184 264 233 123 5 318 269 237 226 211 186 170 162 145 124 121 122 122 119 128 152 161 167 159 141 139 158 165 148 142 145 145 143 142 138 135 131 128 133 138 140 139 138 138 136 131 127 130 134 130 123 119 118 120 126 140 160 178 186 193 202 207 210 215 219 221 224 227 229 231 233 234 234 236 238 240 242 245 247 249 250
148 160 169 131 133 222 235 199 163 153 227 226 212 207 202 179 153 145 143 144 149 151 143 130 105 84 124 153 158 147 144 155 164 154 150 153 154 153 151 141 135 135 134 134 137 141 141 140 137 133 128 127 130 133 132 131 130 128 126 125 128 139 157 172 182 192 198 202 210 218 223 228 233 237 240 243 244 244 245 246 248 250 253 255 255 256
183 173 173 163 178 223 221 187 171 173 215 224 195 179 175 167 153 154 162 168 170 169 158 147 135 121 122 136 145 146 145 148 155 154 145 141 144 147 149 149 146 144 141 139 137 135 133 133 130 125 123 128 134 136 135 133 131 133 138 141 144 149 153 156 163 171 177 189 211 227 237 245 250 251 252 254 256 258 258 257 257 257 258 261 262 262